BEIDOU-3 M16 (C35)

Last updated on Sun Apr 12 2026 00:03:31 GMT+0000 (Coordinated Universal Time)

1 43647U 18078A 26101.43819188 -.00000019 00000+0 00000+0 0 9999 2 43647 54.1513 302.3255 0008329 36.4752 323.6048 1.86232404 50915
UTC large
Height (km)
Speed (km/s)
/
Latitude / Longitude
Inclination (degrees)
Orbital Period (minutes)
Azimuth
Elevation
Range (km)
Doppler Factor

Next 0 passes for location: London (51.5072 / 0.1276)

Sorry there are no passes over London.